sat.trackr.live / text

‹ back to catalog

STARLINK-11473 [DTC]

NORAD 62060 · 2024-217D

PAYLOAD ACTIVE UNKNOWN

§ Identity

Operator
Country
US
Launch date
2024-11-24
Launch site
AFWTR
Launch vehicle
Mass (kg)
RCS (m²)

Purposes: comms

External: N2YO · Heavens-Above · Gunter

§ Orbital elements

Epoch: 2026-09-21T07:17:36.439008Z

Period
91.73 min
Inclination
53.1566°
Eccentricity
0.0001218
Mean motion
15.69757608 rev/d
Perigee alt
358.8 km
Apogee alt
360.4 km
Semi-major
6,737.7 km
B*
1.1035e-3
RAAN
187.1923°
Arg perigee
114.0259°
Mean anomaly
246.0887°
Rev number
10,589

§ Raw data

STARLINK-11473 [DTC]1 62060U 24217D   26264.30389397  .00135570  00000+0  11035-2 0  99942 62060  53.1566 187.1923 0001218 114.0259 246.0887 15.69757608105899

JSON: /api/v1/satellites/62060 · /tle

For live sub-satellite position, see the globe view (requires WebGL).

§ Visibility from observer

Set your observer location to see the next 7 days of passes ≥ 10°. The values pass through the URL so the page stays shareable.

No JS? Fill the form by hand. The geolocation button needs JavaScript.